Weather History for Las Vegas, NV

Change the Weather History Date:

Wednesday, May 28, 2014

  Actual Average Record
Temperature  
Mean Temperature 90 °F 81 °F  
Max Temperature 100 °F 93 °F 109 °F (2003)
Min Temperature 79 °F 69 °F 50 °F (1964)
Degree Days  
Heating Degree Days 0 0  
Month to date heating degree days 1 4  
Since 1 July heating degree days 1512 1947  
Cooling Degree Days 25 16  
Month to date cooling degree days 362 340  
Year to date cooling degree days 589 500  
Growing Degree Days 40 (Base 50)    
Moisture  
Dew Point 25 °F    
Average Humidity 11    
Maximum Humidity 14    
Minimum Humidity 7    
Precipitation  
Precipitation 0.00 in 0.01 in 0.03 in (1971)
Month to date precipitation T 0.11  
Year to date precipitation 0.30 2.00  
Snow  
Snow 0.00 in 0.00 in 0.00 in ()
Month to date snowfall 0.0 0.0  
Since 1 July snowfall 0.0 0.3  
Snow Depth 0.00 in    
Sea Level Pressure  
Sea Level Pressure 29.68 in    
Wind  
Wind Speed 15 mph (SSW)    
Max Wind Speed 24 mph    
Max Gust Speed 33 mph    
Visibility 10 miles    
Events      
T = Trace of Precipitation, MM = Missing Value Source: NWS Daily Summary

Daily Weather History Graph

Daily Weather History Graph

Search for Another Location

Airport:

Trip Planner

Search our weather history database for the weather conditions in past years. The results will help you decide how hot, cold, wet, or windy it might be!

Date:

Astronomy

May. 28, 2014 Rise Set
Actual Time 5:26 AM PDT 7:49 PM PDT
Civil Twilight 4:57 AM PDT 8:19 PM PDT
Nautical Twilight 4:20 AM PDT 8:55 PM PDT
Astronomical Twilight 3:41 AM PDT 9:35 PM PDT
Moon 5:33 AM PDT (5/28) 7:53 PM PDT (5/28)
Length of Visible Light 15h 22m
Length of Day
14h 23m
New Moon, 0% of the Moon is Illuminated
May 28
New Moon
Jun 5
First Quarter
Jun 12
Full
Jun 19
Last Quarter
Jun 27
New

Hourly Weather History & Observations

Time (PDT) Temp. Dew Point Humidity Pressure Visibility Wind Dir Wind Speed Gust Speed Precip Events Conditions
12:56 AM 87.1 °F 30.0 °F 13% 29.70 in 10.0 mi South 15.0 mph - N/A   Mostly Cloudy
1:56 AM 86.0 °F 30.2 °F 13% 29.78 in 10.0 mi South 13.8 mph - N/A   Scattered Clouds
2:56 AM 84.0 °F 30.9 °F 15% 29.69 in 10.0 mi South 15.0 mph - N/A   Scattered Clouds
3:56 AM 82.0 °F 28.9 °F 14% 29.68 in 10.0 mi South 15.0 mph - N/A   Scattered Clouds
4:56 AM 82.4 °F 26.6 °F 13% 29.78 in 10.0 mi South 16.1 mph - N/A   Mostly Cloudy
5:56 AM 80.6 °F 26.6 °F 14% 29.78 in 10.0 mi South 13.8 mph - N/A   Mostly Cloudy
6:56 AM 82.0 °F 26.1 °F 13% 29.70 in 10.0 mi South 11.5 mph - N/A   Mostly Cloudy
7:56 AM 87.1 °F 21.9 °F 9% 29.70 in 10.0 mi South 16.1 mph - N/A   Mostly Cloudy
8:56 AM 88.0 °F 19.9 °F 8% 29.71 in 10.0 mi South 15.0 mph 23.0 mph N/A   Mostly Cloudy
9:56 AM 91.9 °F 19.9 °F 7% 29.71 in 10.0 mi South 18.4 mph - N/A   Mostly Cloudy
10:56 AM 93.9 °F 21.9 °F 7% 29.71 in 10.0 mi SSW 12.7 mph - N/A   Mostly Cloudy
11:56 AM 93.9 °F 28.0 °F 10% 29.70 in 10.0 mi South 20.7 mph 31.1 mph N/A   Mostly Cloudy
12:56 PM 99.0 °F 26.1 °F 8% 29.68 in 10.0 mi South 18.4 mph 26.5 mph N/A   Mostly Cloudy
1:56 PM 98.6 °F 26.6 °F 8% 29.75 in 10.0 mi SSW 18.4 mph 33.4 mph N/A   Mostly Cloudy
2:48 PM 97.0 °F 26.1 °F 8% 29.74 in 10.0 mi SSW 10.4 mph 23.0 mph N/A   Mostly Cloudy
2:56 PM 98.1 °F 26.1 °F 8% 29.65 in 10.0 mi SW 18.4 mph 23.0 mph N/A   Mostly Cloudy
3:56 PM 96.1 °F 26.1 °F 8% 29.64 in 10.0 mi SW 16.1 mph 25.3 mph N/A   Overcast
4:56 PM 96.1 °F 24.1 °F 8% 29.63 in 10.0 mi SSW 18.4 mph 27.6 mph N/A   Mostly Cloudy
5:56 PM 95.0 °F 21.0 °F 7% 29.62 in 10.0 mi South 15.0 mph 24.2 mph N/A   Mostly Cloudy
6:56 PM 93.9 °F 23.0 °F 8% 29.61 in 10.0 mi South 16.1 mph - N/A   Mostly Cloudy
7:56 PM 91.4 °F 26.6 °F 10% 29.70 in 10.0 mi SSW 10.4 mph - N/A   Mostly Cloudy
8:56 PM 90.0 °F 24.1 °F 9% 29.61 in 10.0 mi SSW 9.2 mph - N/A   Mostly Cloudy
9:56 PM 87.1 °F 24.1 °F 10% 29.61 in 10.0 mi SSW 10.4 mph - N/A   Mostly Cloudy
10:56 PM 84.9 °F 25.0 °F 11% 29.62 in 10.0 mi SSW 11.5 mph - N/A   Mostly Cloudy
11:56 PM 87.1 °F 19.9 °F 8% 29.62 in 10.0 mi SSW 12.7 mph - N/A   Mostly Cloudy